Winthrop, MA

1:32 AM EST on December 06, 2016 (GMT -0500)
Logan International

Weather History for KBOS - June, 2014

Change the Weather History Date:

Sunday, June 8, 2014

  Actual Average Record
Temperature  
Mean Temperature 74 °F 65 °F  
Max Temperature 81 °F 74 °F 97 °F (1984)
Min Temperature 67 °F 57 °F 42 °F (1932)
Degree Days  
Heating Degree Days 0 3  
Month to date heating degree days 19 27  
Since 1 June heating degree days 19 27  
Since 1 July heating degree days 5848 5653  
Cooling Degree Days 9 3  
Month to date cooling degree days 22 20  
Year to date cooling degree days 44 50  
Since 1 June cooling degree days 22 20  
Growing Degree Days 24 (Base 50)    
Moisture  
Dew Point 55 °F    
Average Humidity 55    
Maximum Humidity 66    
Minimum Humidity 43    
Precipitation  
Precipitation 0.00 in 0.14 in 1.11 in (1947)
Month to date precipitation 0.92 1.15  
Year to date precipitation 18.87 19.31  
Sea Level Pressure  
Sea Level Pressure 29.91 in    
Wind  
Wind Speed 8 mph (SSE)    
Max Wind Speed 15 mph    
Max Gust Speed 17 mph    
Visibility 10 miles    
Events      
T = Trace of Precipitation, MM = Missing Value Source: NWS Daily Summary

Daily Weather History Graph

Daily Weather History Graph

Search for Another Location

Airport or City:

Trip Planner

Search our weather history database for the weather conditions in past years. The results will help you decide how hot, cold, wet, or windy it might be!

Date:

Astronomy

Jun. 08, 2014 Rise Set
Actual Time 5:07 AM EDT 8:19 PM EDT
Civil Twilight 4:32 AM EDT 8:53 PM EDT
Nautical Twilight 3:48 AM EDT 9:37 PM EDT
Astronomical Twilight 2:55 AM EDT 10:31 PM EDT
Moon 3:29 PM EDT (6/8) 2:04 AM EDT (6/8)
Length of Visible Light 16h 20m
Length of Day
15h 11m
Waxing Gibbous, 77% of the Moon is Illuminated
Jun 8
Waxing Gibbous
Jun 13
Full
Jun 19
Last Quarter
Jun 27
New
Jul 5
First Quarter

Hourly Weather History & Observations

Time (EDT) Temp. Dew Point Humidity Pressure Visibility Wind Dir Wind Speed Gust Speed Precip Events Conditions
12:54 AM 71.1 °F 54.0 °F 55% 29.93 in 10.0 mi WNW 5.8 mph - N/A   Partly Cloudy
1:54 AM 71.1 °F 53.1 °F 53% 29.92 in 10.0 mi NW 8.1 mph - N/A   Partly Cloudy
2:54 AM 71.1 °F 52.0 °F 51% 29.89 in 10.0 mi North 4.6 mph - N/A   Clear
3:54 AM 68.0 °F 53.1 °F 59% 29.91 in 10.0 mi WNW 10.4 mph - N/A   Clear
4:54 AM 66.9 °F 53.1 °F 61% 29.91 in 10.0 mi WNW 8.1 mph - N/A   Partly Cloudy
5:54 AM 68.0 °F 52.0 °F 56% 29.92 in 10.0 mi WNW 8.1 mph - N/A   Partly Cloudy
6:54 AM 70.0 °F 53.1 °F 55% 29.94 in 10.0 mi WNW 5.8 mph - N/A   Clear
7:54 AM 73.0 °F 55.0 °F 53% 29.94 in 10.0 mi WNW 5.8 mph - N/A   Clear
8:54 AM 78.1 °F 55.9 °F 46% 29.94 in 10.0 mi Calm Calm - N/A   Clear
9:54 AM 75.9 °F 57.9 °F 54% 29.93 in 10.0 mi SE 5.8 mph - N/A   Partly Cloudy
10:54 AM 77.0 °F 55.9 °F 48% 29.94 in 10.0 mi SE 6.9 mph - N/A   Partly Cloudy
11:54 AM 79.0 °F 55.0 °F 44% 29.93 in 10.0 mi ESE 9.2 mph - N/A   Scattered Clouds
12:54 PM 79.0 °F 55.9 °F 45% 29.92 in 10.0 mi ESE 10.4 mph - N/A   Mostly Cloudy
1:54 PM 77.0 °F 54.0 °F 45% 29.91 in 10.0 mi ESE 12.7 mph - N/A   Mostly Cloudy
2:54 PM 75.0 °F 57.0 °F 53% 29.90 in 10.0 mi East 12.7 mph - N/A   Overcast
3:54 PM 79.0 °F 55.9 °F 45% 29.89 in 10.0 mi ESE 10.4 mph - N/A   Overcast
4:54 PM 77.0 °F 55.9 °F 48% 29.88 in 10.0 mi ESE 11.5 mph - N/A   Overcast
5:54 PM 78.1 °F 59.0 °F 52% 29.86 in 8.0 mi ESE 8.1 mph - N/A   Overcast
6:54 PM 73.9 °F 57.9 °F 57% 29.87 in 10.0 mi ESE 6.9 mph - N/A   Overcast
7:54 PM 72.0 °F 57.9 °F 61% 29.87 in 10.0 mi SE 5.8 mph - N/A   Overcast
8:54 PM 70.0 °F 57.9 °F 65% 29.88 in 10.0 mi SSE 3.5 mph - N/A   Overcast
9:54 PM 73.9 °F 55.0 °F 52% 29.90 in 10.0 mi SSW 6.9 mph - N/A   Mostly Cloudy
10:54 PM 71.1 °F 55.9 °F 59% 29.90 in 10.0 mi SSW 6.9 mph - N/A   Mostly Cloudy
11:54 PM 72.0 °F 55.0 °F 55% 29.90 in 10.0 mi SW 8.1 mph - N/A   Mostly Cloudy